[[{"header":{"parameterUnit":"m.s-1","parameterCategory":1,"la1":30.2991,"la2":30.254,"lo1":-89.0895,"lo2":-89.0444,"dy":0.0017,"dx":0.0017,"nx":28,"ny":28,"refTime":"2025-07-17T03:00:00:Z","depth":0,"parameterNumber":2,"parameterNumberName":"U-component_of_WINDS"},"data":[0,0,0,0,0,0,0,0,0,0,0,0,0,0,0,0,0,0,0,0,0,0,0,0,0,0,0,0,0,0,0,0,0,0,0,0,0,0,0,0,0,0,0,0,0,0,0,0,0,0,0,0,0,0,0,0,0,0,-0.7267,-0.7268,0,-0.7273,-0.7273,-0.7273,-0.7347,-0.7349,-0.7351,-0.7353,-0.7356,-0.7354,-0.7353,0,0,0,0,0,0,0,0,0,0,0,0,0,-0.7319,-0.7317,-0.7267,-0.7268,-0.7268,-0.7273,-0.7273,-0.7273,-0.7347,-0.7349,-0.7351,-0.7354,-0.7356,-0.7354,-0.7352,0,0,0,0,0,0,0,0,0,0,0,0,0,-0.7308,-0.7317,-0.7267,-0.7305,-0.7308,-0.7273,-0.7273,-0.7273,-0.7346,-0.7349,-0.7352,-0.7355,-0.7357,-0.7355,-0.7352,-0.728,0,0,-0.7345,-0.7343,0,0,0,0,0,0,0,0,-0.7308,-0.7306,-0.7299,-0.7302,-0.7306,-0.7312,-0.7293,-0.7276,-0.7346,-0.7332,-0.7353,-0.7356,-0.7339,-0.7338,-0.7333,-0.7281,-0.7281,-0.7344,-0.7343,-0.7342,-0.7341,0,0,0,0,0,0,0,-0.7309,-0.7306,-0.727,-0.7299,-0.7303,-0.7321,-0.7323,-0.729,-0.7319,-0.7333,-0.7339,-0.7339,-0.7341,-0.7335,-0.7334,-0.7281,-0.7344,-0.7342,-0.7341,-0.734,-0.717,-0.7167,0,0,0,0,0,0,-0.7305,-0.7306,-0.727,-0.727,-0.7314,-0.7318,-0.732,-0.7308,-0.732,-0.7325,-0.7336,-0.7342,-0.7338,-0.7336,-0.7334,-0.725,-0.7342,-0.7339,-0.7338,-0.7173,-0.7169,-0.7166,0,0,0,0,0,0,-0.7305,-0.7301,-0.7269,-0.7289,-0.7287,-0.7314,-0.73,-0.7306,-0.73,-0.7322,-0.7328,-0.7324,-0.734,-0.7337,-0.7293,-0.7251,-0.7338,-0.7336,-0.7176,-0.7172,-0.7167,-0.7081,0,0,0,0,0,0,-0.7307,-0.7301,-0.7274,-0.7288,-0.7285,-0.7229,-0.7297,-0.7304,-0.7296,-0.7304,-0.7313,-0.7317,-0.7342,-0.7297,-0.7291,-0.7249,-0.7334,-0.718,-0.7174,-0.7169,-0.7088,-0.7074,-0.7063,0,0,0,0,0,-0.7308,-0.7249,-0.7272,-0.7267,-0.7253,-0.7226,-0.7224,-0.7255,-0.7292,-0.7265,-0.728,-0.7317,-0.7257,-0.7292,-0.7286,-0.7242,-0.7183,-0.7176,-0.7169,-0.7094,-0.7077,-0.7063,0,0,0,0,0,0,-0.7227,-0.7251,-0.7277,-0.7221,-0.7221,-0.7239,-0.7205,-0.7237,-0.7226,-0.7233,-0.7272,-0.7273,-0.7223,-0.7229,-0.7267,-0.7174,-0.7227,-0.7218,-0.7171,-0.7156,-0.7143,-0.7141,-0.7332,0,0,0,0,0,-0.7203,-0.718,-0.7202,-0.715,-0.7149,-0.7177,-0.7167,-0.7191,-0.7192,-0.7192,-0.7204,-0.7203,-0.7184,-0.7171,-0.7155,-0.7091,-0.7093,-0.7058,-0.7045,-0.7035,-0.7026,-0.6992,-0.6976,-0.7143,-0.7144,-0.7144,0,0,-0.7152,-0.7163,-0.7146,-0.7134,-0.7137,-0.7112,-0.7177,-0.7147,-0.7128,-0.7188,-0.7146,-0.7155,-0.7157,-0.7102,-0.7078,-0.7105,-0.6981,-0.7026,-0.7018,-0.7015,-0.6983,-0.6967,-0.6953,-0.7139,-0.714,-0.714,0,0,-0.7046,-0.7053,-0.701,-0.7012,-0.7016,-0.7035,-0.7025,-0.7038,-0.7046,-0.7006,-0.705,-0.7028,-0.6995,-0.6994,-0.699,-0.6885,-0.6918,-0.6879,-0.6812,-0.6778,-0.6765,-0.6753,-0.6714,-0.67,-0.6871,-0.6871,-0.6871,0,-0.6982,-0.6946,-0.6983,-0.6951,-0.6944,-0.6999,-0.6955,-0.6955,-0.6953,-0.6947,-0.6978,-0.6938,-0.6943,-0.6889,-0.6863,-0.6858,-0.6847,-0.6877,-0.6764,-0.6753,-0.6743,-0.6706,-0.6691,-0.6866,-0.6867,-0.6867,-0.6868,0,-0.6866,-0.6841,-0.6806,-0.6804,-0.6794,-0.6756,-0.6786,-0.6772,-0.6798,-0.6813,-0.6772,-0.678,-0.6766,-0.6756,-0.6781,-0.6705,-0.6721,-0.6757,-0.6811,-0.6721,-0.6687,-0.6673,-0.6859,-0.6861,-0.6862,-0.6864,0,0,-0.6707,-0.6727,-0.6713,-0.6713,-0.6722,-0.6703,-0.6668,-0.6656,-0.6641,-0.6639,-0.661,-0.6582,-0.6615,-0.661,-0.6635,-0.6606,-0.6521,-0.6646,-0.6647,-0.662,-0.6436,-0.6406,-0.6389,-0.6544,-0.6542,-0.654,-0.6435,0,-0.6603,-0.6544,-0.6577,-0.6513,-0.6489,-0.6542,-0.6511,-0.6513,-0.6528,-0.6509,-0.6526,-0.6504,-0.6552,-0.6549,-0.6522,-0.6537,-0.6484,-0.6545,-0.6515,-0.6514,-0.651,-0.6372,-0.6341,-0.6241,-0.6422,-0.642,-0.6418,0,-0.6473,-0.6466,-0.6399,-0.6414,-0.6405,-0.6377,-0.6368,-0.6351,-0.6355,-0.6367,-0.6362,-0.6395,-0.6361,-0.6416,-0.6369,-0.6409,-0.64,-0.6405,-0.6402,-0.6398,-0.6458,-0.6362,-0.621,-0.6194,-0.6398,-0.64,-0.6401,0,-0.636,-0.6335,-0.6291,-0.629,-0.6306,-0.6285,-0.629,-0.6297,-0.6287,-0.628,-0.6274,-0.6263,-0.6256,-0.6247,-0.6275,-0.6313,-0.6223,-0.6281,-0.6231,-0.623,-0.6207,-0.6208,-0.605,-0.6206,-0.6206,-0.6206,-0.6206,0,-0.6239,-0.6196,-0.6241,-0.6214,-0.6167,-0.6206,-0.6159,-0.617,-0.6176,-0.6151,-0.6197,-0.6173,-0.6214,-0.6194,-0.6217,-0.6173,-0.617,-0.6178,-0.6184,-0.6173,-0.6171,-0.6164,-0.6171,-0.6202,-0.6203,-0.6204,-0.6205,0,-0.6104,-0.6133,-0.6089,-0.6108,-0.6112,-0.6077,-0.6093,-0.6069,-0.6088,-0.6056,-0.6051,-0.608,-0.6059,-0.6087,-0.6069,-0.6084,-0.6024,-0.6042,-0.6022,-0.6026,-0.5974,-0.5977,-0.5803,-0.5782,-0.5954,-0.5952,-0.5951,0,-0.6023,-0.5992,-0.6008,-0.5996,-0.5999,-0.5978,-0.5969,-0.6007,-0.5996,-0.5998,-0.5973,-0.5956,-0.5944,-0.5908,-0.5927,-0.5913,-0.5929,-0.5869,-0.5927,-0.5916,-0.5925,-0.5925,-0.5922,-0.5856,-0.5854,-0.5852,-0.5851,0,-0.5877,-0.5893,-0.5878,-0.5869,-0.5857,-0.5851,-0.5849,-0.5836,-0.5876,-0.5861,-0.584,-0.5831,-0.5814,-0.5795,-0.5787,-0.5792,-0.5827,-0.5833,-0.5821,-0.5806,-0.5796,-0.5798,-0.5987,-0.5836,-0.5838,-0.5839,-0.584,-0.584,-0.5765,-0.5739,-0.5746,-0.5729,-0.5731,-0.5728,-0.5706,-0.5723,-0.5706,-0.5695,-0.5719,-0.5692,-0.5697,-0.569,-0.5691,-0.567,-0.5696,-0.5678,-0.5673,-0.5667,-0.5658,-0.5802,-0.5669,-0.567,-0.567,-0.5671,-0.5671,0,-0.5618,-0.5626,-0.561,-0.5605,-0.5592,-0.5629,-0.5628,-0.5613,-0.559,-0.5592,-0.558,-0.5556,-0.554,-0.5558,-0.5544,-0.5524,-0.5539,-0.5519,-0.5519,-0.5519,-0.5637,-0.5648,-0.5506,-0.5506,-0.5506,-0.5506,-0.5506,-0.5506,-0.554,-0.5497,-0.5514,-0.5474,-0.5482,-0.5457,-0.5453,-0.545,-0.5452,-0.5424,-0.5411,-0.5423,-0.5432,-0.5419,-0.5405,-0.5411,-0.5403,-0.5376,-0.5386,-0.5495,-0.5511,-0.5526,-0.5537,-0.5374,-0.5374,-0.527,-0.5269,-0.5269]},{"header":{"parameterUnit":"m.s-1","parameterCategory":1,"la1":30.2991,"la2":30.254,"lo1":-89.0895,"lo2":-89.0444,"dy":0.0017,"dx":0.0017,"nx":28,"ny":28,"refTime":"2025-07-17T03:00:00:Z","depth":0,"parameterNumber":3,"parameterNumberName":"V-component_of_WINDS"},"data":[0,0,0,0,0,0,0,0,0,0,0,0,0,0,0,0,0,0,0,0,0,0,0,0,0,0,0,0,0,0,0,0,0,0,0,0,0,0,0,0,0,0,0,0,0,0,0,0,0,0,0,0,0,0,0,0,0,0,6.6111,6.6113,0,6.6215,6.6216,6.6217,6.6118,6.6114,6.611,6.6106,6.6209,6.6215,6.6222,0,0,0,0,0,0,0,0,0,0,0,0,0,6.5822,6.5828,6.6111,6.6113,6.6114,6.6215,6.6216,6.6218,6.6119,6.6114,6.6109,6.6105,6.6207,6.6215,6.6222,0,0,0,0,0,0,0,0,0,0,0,0,0,6.5939,6.583,6.6111,6.6077,6.6075,6.6215,6.6216,6.6218,6.612,6.6114,6.6108,6.6102,6.6205,6.6214,6.6223,6.6401,0,0,6.6253,6.6257,0,0,0,0,0,0,0,0,6.5932,6.595,6.608,6.6079,6.6077,6.6148,6.6152,6.6279,6.6121,6.6103,6.6106,6.6099,6.6193,6.6203,6.6236,6.6406,6.6411,6.6254,6.626,6.6264,6.6266,0,0,0,0,0,0,0,6.5924,6.5944,6.6152,6.6082,6.6081,6.6054,6.6064,6.6175,6.618,6.6104,6.6097,6.6111,6.6191,6.6227,6.6237,6.6412,6.6253,6.6262,6.6268,6.6272,6.6729,6.6735,0,0,0,0,0,0,6.5921,6.5938,6.6149,6.6155,6.5989,6.6064,6.6076,6.6131,6.6178,6.618,6.6115,6.6105,6.6213,6.6226,6.6241,6.6449,6.6264,6.6273,6.6278,6.6723,6.673,6.6737,0,0,0,0,0,0,6.5915,6.594,6.6145,6.6045,6.6069,6.6076,6.6139,6.6136,6.6171,6.6187,6.6187,6.6151,6.6209,6.6227,6.6361,6.6451,6.6277,6.6286,6.6715,6.6725,6.6734,6.6869,0,0,0,0,0,0,6.5907,6.5939,6.6008,6.6047,6.6075,6.6266,6.6144,6.6142,6.6189,6.6177,6.6221,6.6222,6.6206,6.6348,6.6371,6.6461,6.6293,6.6707,6.6719,6.6731,6.6857,6.6882,6.6904,0,0,0,0,0,6.5897,6.6042,6.6012,6.6038,6.6162,6.6271,6.6287,6.6266,6.6197,6.6265,6.6274,6.6221,6.6438,6.6362,6.6388,6.6482,6.6701,6.6716,6.673,6.6846,6.6877,6.6904,0,0,0,0,0,0,6.6013,6.6047,6.6014,6.6177,6.6222,6.6254,6.634,6.63,6.6365,6.6351,6.6321,6.6331,6.6473,6.6491,6.6406,6.6655,6.6558,6.6578,6.6638,6.6668,6.6691,6.6683,6.6301,0,0,0,0,0,6.6058,6.6146,6.617,6.6311,6.6335,6.6334,6.6381,6.6361,6.6406,6.6424,6.6444,6.6488,6.6566,6.6618,6.6691,6.6859,6.6865,6.6937,6.696,6.698,6.6997,6.7084,6.7115,6.6784,6.6784,6.6784,0,0,6.6151,6.618,6.6237,6.6335,6.6368,6.6457,6.6351,6.6451,6.6516,6.6439,6.6566,6.6582,6.663,6.6781,6.6849,6.6801,6.709,6.6998,6.7013,6.702,6.7102,6.7133,6.7161,6.6794,6.6792,6.6791,0,0,6.6366,6.6398,6.6518,6.6552,6.6603,6.66,6.6629,6.6667,6.6675,6.6803,6.6746,6.6822,6.6958,6.6993,6.7028,6.7253,6.7205,6.7278,6.7401,6.7486,6.7512,6.7535,6.7612,6.7641,6.7295,6.7296,6.7296,0,6.6475,6.6608,6.6584,6.6687,6.673,6.6665,6.6784,6.6818,6.689,6.692,6.6866,6.7032,6.706,6.7217,6.7271,6.7303,6.7333,6.7272,6.7511,6.7533,6.7554,6.7627,6.7657,6.7304,6.7303,6.7302,6.7301,0,6.6738,6.6832,6.6922,6.6992,6.7046,6.7157,6.7146,6.7203,6.7177,6.718,6.7309,6.7339,6.7416,6.7451,6.7428,6.7604,6.7573,6.7515,6.7417,6.7594,6.7662,6.7691,6.7316,6.7313,6.731,6.7308,0,0,6.703,6.7084,6.7117,6.7147,6.7197,6.7268,6.7374,6.7449,6.7496,6.7547,6.7634,6.7749,6.7695,6.7735,6.7715,6.779,6.7962,6.7722,6.7722,6.7763,6.8154,6.8196,6.8229,6.7931,6.7936,6.794,6.8149,0,6.7244,6.743,6.741,6.7586,6.767,6.7608,6.7699,6.7739,6.7744,6.7814,6.7818,6.7899,6.7824,6.7847,6.7919,6.7926,6.8039,6.7911,6.8008,6.8012,6.7997,6.8266,6.8311,6.8507,6.8176,6.8181,6.8184,0,6.752,6.758,6.7765,6.7798,6.7833,6.7916,6.7981,6.805,6.8092,6.809,6.8134,6.8099,6.8203,6.8104,6.8244,6.8157,6.8196,6.8205,6.8212,6.8219,6.8108,6.8278,6.8569,6.8598,6.8227,6.8223,6.822,0,6.7711,6.7838,6.7964,6.7992,6.8035,6.8094,6.8115,6.8151,6.8196,6.8253,6.8281,6.8349,6.8386,6.8438,6.8422,6.8351,6.8565,6.8465,6.8564,6.8564,6.8611,6.8608,6.8911,6.8639,6.8639,6.8638,6.8638,0,6.7951,6.8066,6.805,6.8127,6.8253,6.8227,6.8351,6.8364,6.8396,6.8473,6.8423,6.8496,6.8471,6.8541,6.8529,6.8646,6.8663,6.8662,6.8657,6.8666,6.8666,6.869,6.8675,6.8646,6.8644,6.8643,6.8641,0,6.8186,6.818,6.8313,6.8342,6.8352,6.8443,6.8467,6.8539,6.8539,6.8636,6.8658,6.8658,6.8738,6.8727,6.8816,6.8807,6.8952,6.8932,6.8938,6.8933,6.9032,6.9022,6.9359,6.9401,6.9104,6.9107,6.911,0,6.8339,6.8425,6.8464,6.8512,6.8536,6.8615,6.866,6.8637,6.8686,6.8739,6.8803,6.8879,6.8939,6.9069,6.9076,6.9143,6.9123,6.9236,6.9132,6.9137,6.9121,6.9116,6.9123,6.9256,6.926,6.9262,6.9265,0,6.861,6.8602,6.867,6.8737,6.8793,6.8844,6.889,6.8932,6.8913,6.897,6.9052,6.9098,6.9188,6.9263,6.9326,6.9344,6.9301,6.9297,6.9323,6.9332,6.9332,6.9331,6.8992,6.9289,6.9287,6.9285,6.9284,6.9283,6.8807,6.888,6.8917,6.8994,6.9026,6.907,6.9137,6.9145,6.9213,6.9285,6.9267,6.9359,6.9395,6.9474,6.95,6.9569,6.9527,6.9566,6.9575,6.9585,6.9595,6.9322,6.9581,6.958,6.9579,6.9579,6.9578,0,6.9074,6.9094,6.9165,6.9231,6.929,6.9245,6.9292,6.9345,6.9426,6.9464,6.9523,6.9615,6.9686,6.9698,6.9766,6.9819,6.98,6.9837,6.9832,6.9836,6.963,6.96,6.9851,6.9851,6.9851,6.9851,6.9851,6.985,6.9219,6.9339,6.9335,6.9469,6.9488,6.9578,6.9609,6.9648,6.9677,6.9783,6.9842,6.9849,6.9875,6.9944,7.0007,7.0008,7.0034,7.0078,7.0072,6.9879,6.9851,6.9825,6.9797,7.0085,7.0085,7.0272,7.0274,7.0275]}]]